Stations météo

réclame
Mon MeteoGroup
Tholey, Allemagne (10706): Température de l'air & dewpoint: 09.09.2019 12:00:00 - 15.09.2019 12:00:00 (CEST)Tholey, Allemagne (10706): Température de l'air 5cm & Température de l'air -5cm: 09.09.2019 12:00:00 - 15.09.2019 12:00:00 (CEST)Tholey, Allemagne (10706): Température de l'air -20cm & Température de l'air -100cm: 09.09.2019 12:00:00 - 15.09.2019 12:00:00 (CEST)Tholey, Allemagne (10706): Vitesse du vent & gusts: 09.09.2019 12:00:00 - 15.09.2019 12:00:00 (CEST)Tholey, Allemagne (10706): Direction du vent: 09.09.2019 12:00:00 - 15.09.2019 12:00:00 (CEST)Tholey, Allemagne (10706): reduced air pressure: 09.09.2019 12:00:00 - 15.09.2019 12:00:00 (CEST)Tholey, Allemagne (10706): visibility: 09.09.2019 12:00:00 - 15.09.2019 12:00:00 (CEST)Tholey, Allemagne (10706): Ensoleillement: 09.09.2019 12:00:00 - 15.09.2019 12:00:00 (CEST)Tholey, Allemagne (10706): Quantités de précipitations: 09.09.2019 12:00:00 - 15.09.2019 12:00:00 (CEST)
Date & Time tt [°C] td [°C] tt 5cm [°C] tt -5cm [°C] tt -20cm [°C] tt -100cm [°C] ff [km/h] ff [knt] fx [km/h] fx [knt] dd ppp [hPa] vv [km] sd [min] rr [mm]
15.09.2019 12:00:00 21,4 12,1 26,4 23,2 17,1 17,3 11 6 16 9 SW 1024,2 58 60 0,0
15.09.2019 11:00:00 20,1 11,4 24,2 20,5 16,8 17,3 8 4 11 6 WSW 1024,5 75 60 0,0
15.09.2019 10:00:00 18,0 10,7 19,7 17,5 16,8 17,3 4 2 8 5 SSE 1025,0 63 60 0,0
15.09.2019 09:00:00 15,4 10,1 16,7 15,0 17,0 17,3 3 2 5 3 ENE 1025,4 60 60 0,0
15.09.2019 08:00:00 13,2 9,0 12,2 13,4 17,2 17,3 4 2 11 6 NE 1025,8 52 31 0,0
15.09.2019 07:00:00 15,1 9,5 10,0 13,5 17,4 17,4 10 5 11 6 NE 1025,4 55 0 0,0
15.09.2019 06:00:00 13,7 9,3 9,5 14,0 17,7 17,4 9 5 12 7 NE 1025,5 58 0 0,0
15.09.2019 05:00:00 13,9 9,5 10,2 14,5 17,9 17,4 10 5 16 8 NE 1025,8 64 0 0,0
15.09.2019 04:00:00 15,3 9,7 12,1 15,0 18,2 17,4 11 6 16 9 NE 1025,9 67 0 0,0
15.09.2019 03:00:00 15,3 9,9 12,2 15,4 18,5 17,4 12 6 18 10 NE 1026,4 60 0 0,0
15.09.2019 02:00:00 15,1 9,9 12,6 16,0 18,7 17,4 11 6 21 11 NE 1027,0 63 0 0,0
15.09.2019 01:00:00 16,3 10,2 13,8 16,5 19,0 17,4 13 7 19 10 NE 1027,0 67 0 0,0
15.09.2019 00:00:00 16,8 10,5 14,2 17,0 19,3 17,4 15 8 19 10 NE 1027,2 65 0 0,0
14.09.2019 23:00:00 16,9 10,5 14,2 17,8 19,6 17,4 13 7 18 10 NE 1027,8 62 0 0,0
14.09.2019 22:00:00 17,5 10,6 15,0 18,7 19,8 17,4 14 8 19 10 ENE 1028,2 60 0 0,0
14.09.2019 21:00:00 18,1 10,8 15,7 19,9 20,0 17,4 14 8 22 12 ENE 1028,0 75 0 0,0
14.09.2019 20:00:00 19,1 11,1 16,8 21,5 20,0 17,4 12 7 19 11 ENE 1027,7 65 44 0,0
14.09.2019 19:00:00 20,7 10,8 21,3 23,7 19,8 17,4 12 6 19 11 E 1027,5 62 60 0,0
14.09.2019 18:00:00 21,8 10,4 24,7 25,7 19,5 17,4 12 7 20 11 E 1027,4 75 60 0,0
14.09.2019 17:00:00 22,2 9,6 27,1 26,9 19,0 17,4 11 6 21 11 E 1027,8 75 60 0,0
14.09.2019 16:00:00 22,2 9,9 27,9 27,3 18,4 17,4 11 6 22 12 ENE 1028,3 75 60 0,0
14.09.2019 15:00:00 21,7 10,5 27,4 26,8 17,8 17,4 13 7 23 13 E 1028,9 75 60 0,0
14.09.2019 14:00:00 21,2 10,9 26,8 25,5 17,3 17,4 13 7 26 14 E 1029,7 70 60 0,0
14.09.2019 13:00:00 20,7 11,1 26,7 23,5 16,9 17,4 16 9 26 14 E 1030,3 75 60 0,0
14.09.2019 12:00:00 19,3 11,9 24,4 21,1 16,6 17,4 16 9 26 14 E 1031,1 49 60 0,0
14.09.2019 11:00:00 17,0 11,7 21,2 18,5 16,5 17,4 15 8 23 13 E 1031,6 75 60 0,0
14.09.2019 10:00:00 15,0 11,4 17,4 16,0 16,5 17,4 14 8 24 13 ENE 1032,0 66 60 0,0
14.09.2019 09:00:00 14,5 11,4 15,5 14,7 16,6 17,4 16 8 29 16 ENE 1032,3 59 58 0,0
14.09.2019 08:00:00 13,5 11,2 12,5 14,0 16,8 17,4 19 10 31 17 NE 1032,3 54 19 0,0
14.09.2019 07:00:00 13,5 11,4 12,0 14,3 17,0 17,4 22 12 32 17 NE 1031,7 39 0 0,0
14.09.2019 06:00:00 14,1 12,2 12,8 14,7 17,1 17,4 20 11 31 17 NE 1031,5 32 0 0,0
14.09.2019 05:00:00 14,4 12,4 13,4 14,9 17,3 17,4 21 12 29 15 NE 1031,9 32 0 0,0
14.09.2019 04:00:00 14,5 12,5 12,9 15,0 17,5 17,4 19 10 29 16 NE 1032,3 35 0 0,0
14.09.2019 03:00:00 14,7 12,8 13,4 15,3 17,7 17,4 20 11 28 15 NE 1032,6 28 0 0,0
14.09.2019 02:00:00 14,9 12,9 13,3 15,6 17,9 17,5 19 10 27 14 NE 1032,3 33 0 0,0
14.09.2019 01:00:00 15,4 12,8 13,7 16,0 18,1 17,5 16 9 27 15 NE 1032,5 37 0 0,0
14.09.2019 00:00:00 15,9 12,6 14,1 16,5 18,3 17,5 18 10 29 16 NE 1032,5 45 0 0,0
13.09.2019 23:00:00 16,6 12,3 14,7 17,1 18,5 17,5 18 10 27 15 NE 1032,4 57 0 0,0
13.09.2019 22:00:00 16,8 12,5 14,7 18,0 18,6 17,5 13 7 18 10 NE 1032,3 68 0 0,0
13.09.2019 21:00:00 17,2 13,1 15,2 19,2 18,7 17,5 12 6 21 12 NE 1032,2 75 0 0,0
13.09.2019 20:00:00 19,0 14,2 18,0 20,5 18,6 17,5 6 4 9 5 E 1031,2 63 16 0,0
13.09.2019 19:00:00 20,3 13,7 20,3 21,9 18,4 17,5 3 2 12 7 ESE 1031,2 75 6 0,0
13.09.2019 18:00:00 20,9 13,3 24,1 23,5 18,1 17,5 6 4 13 7 SE 1031,0 75 41 0,0
13.09.2019 17:00:00 20,7 13,2 22,8 23,2 17,8 17,5 5 3 16 9 E 1031,2 68 21 0,0
13.09.2019 16:00:00 19,9 13,8 21,4 22,1 17,4 17,5 6 4 15 8 W 1031,6 70 0 0,0
13.09.2019 15:00:00 19,6 13,2 21,9 22,8 16,9 17,5 9 5 16 8 SW 1031,7 75 8 0,0
13.09.2019 14:00:00 19,9 13,5 25,1 22,9 16,6 17,5 13 7 17 9 WSW 1032,0 70 37 0,0
13.09.2019 13:00:00 18,3 13,6 20,2 19,1 16,4 17,5 4 2 15 8 NW 1032,4 75 0 0,0
13.09.2019 12:00:00 17,7 14,0 19,3 18,4 16,2 17,5 10 5 19 10 WNW 1032,5 69 0 0,0
13.09.2019 11:00:00 17,2 14,2 18,5 17,6 16,0 17,5 8 5 18 10 W 1032,4 68 9 0,0
13.09.2019 10:00:00 16,2 14,3 19,1 16,4 15,9 17,5 9 5 13 7 WSW 1032,2 27 14 0,0
13.09.2019 09:00:00 14,7 14,3 14,9 15,0 15,9 17,5 4 2 7 4 WSW 1031,9 12 0 0,0
13.09.2019 08:00:00 13,9 13,6 13,8 14,2 16,0 17,6 5 3 8 5 WSW 1032,1 8 0 0,0
13.09.2019 07:00:00 13,2 13,1 13,1 13,7 16,1 17,6 6 3 10 5 WSW 1032,1 1,9 0 0,0
13.09.2019 06:00:00 12,9 12,7 11,7 13,4 16,3 17,6 9 5 11 6 W 1031,5 2,7 0 0,0
13.09.2019 05:00:00 13,3 12,8 12,5 13,7 16,4 17,6 9 5 13 7 WSW 1031,4 14 0 0,0
13.09.2019 04:00:00 13,6 12,9 11,3 13,4 16,6 17,6 7 4 8 5 W 1031,4 37 0 0,0
13.09.2019 03:00:00 13,9 12,9 11,3 13,8 16,8 17,6 7 4 10 5 WSW 1031,4 50 0 0,0
13.09.2019 02:00:00 14,7 12,8 12,1 14,2 17,0 17,6 7 4 10 5 W 1031,0 66 0 0,0
13.09.2019 01:00:00 15,6 12,9 11,5 14,7 17,2 17,6 5 3 10 5 W 1031,0 75 0 0,0
13.09.2019 00:00:00 16,1 12,9 13,1 15,3 17,4 17,6 7 4 19 10 W 1031,1 74 0 0,0
12.09.2019 23:00:00 17,3 13,1 15,2 15,7 17,6 17,6 11 6 18 10 WNW 1030,9 70 0 0,0
12.09.2019 22:00:00 17,2 12,9 13,9 16,3 17,7 17,6 7 4 14 8 WSW 1030,9 71 0 0,0
12.09.2019 21:00:00 18,2 12,9 15,9 17,1 17,8 17,6 10 5 18 10 W 1030,6 75 0 0,0
12.09.2019 20:00:00 19,4 12,5 17,2 18,3 17,8 17,6 10 5 21 12 W 1030,0 75 49 0,0
12.09.2019 19:00:00 20,9 12,1 20,3 19,6 17,6 17,6 14 8 31 17 W 1029,5 64 60 0,0
12.09.2019 18:00:00 21,3 13,3 22,1 20,4 17,4 17,6 16 9 31 17 W 1029,3 61 50 0,0
12.09.2019 17:00:00 20,9 14,7 21,9 20,9 17,1 17,7 17 9 29 16 W 1029,7 56 37 0,0
12.09.2019 16:00:00 19,8 15,6 20,5 20,9 16,9 17,7 12 7 20 11 W 1030,2 70 28 0,0
12.09.2019 15:00:00 17,8 16,3 18,9 18,8 16,7 17,7 10 6 25 14 W 1030,8 25 1 0,0
12.09.2019 14:00:00 17,2 15,8 17,8 18,4 16,6 17,7 9 5 16 9 W 1030,8 34 0 0,1
12.09.2019 13:00:00 16,0 15,4 16,3 17,4 16,4 17,7 10 5 20 11 WSW 1031,0 9 0 0,1
12.09.2019 12:00:00 15,5 14,9 16,1 17,1 16,3 17,7 11 6 18 10 W 1031,1 4,7 0 0,2
12.09.2019 11:00:00 14,9 14,1 15,6 16,5 16,3 17,7 6 4 16 9 WSW 1030,6 9 0 0,0
12.09.2019 10:00:00 14,1 13,6 14,9 15,6 16,3 17,7 10 5 15 8 WSW 1030,2 13 0 0,0
12.09.2019 09:00:00 13,2 12,8 13,6 15,0 16,4 17,7 10 6 14 8 WSW 1029,7 1,5 0 0,0
12.09.2019 08:00:00 13,2 12,7 13,0 14,8 16,4 17,7 8 4 12 7 W 1029,2 22 0 0,0
12.09.2019 07:00:00 12,8 12,7 12,8 14,8 16,5 17,7 8 4 15 8 W 1028,7 0,8 0 0,1
12.09.2019 06:00:00 12,6 12,4 12,6 14,9 16,6 17,7 11 6 19 10 W 1028,4 0,8 0 0,7
12.09.2019 05:00:00 13,1 11,7 12,5 15,2 16,7 17,8 14 8 25 13 W 1028,4 7 0 0,1
12.09.2019 04:00:00 15,2 8,8 14,8 15,4 16,8 17,8 12 6 16 8 W 1027,8 55 0 0,0
12.09.2019 03:00:00 15,4 8,5 14,9 15,6 16,9 17,8 10 6 18 10 W 1027,4 68 0 0,0
12.09.2019 02:00:00 15,6 8,4 14,7 15,7 17,0 17,8 9 5 13 7 W 1027,2 53 0 0,0
12.09.2019 01:00:00 15,8 8,6 15,2 15,9 17,1 17,8 8 5 12 7 W 1026,7 60 0 0,0
12.09.2019 00:00:00 16,2 8,4 15,4 16,1 17,2 17,8 6 4 10 6 W 1026,6 57 0 0,0
11.09.2019 23:00:00 15,8 8,3 14,1 16,3 17,3 17,8 7 4 10 6 W 1026,4 56 0 0,0
11.09.2019 22:00:00 16,5 8,3 15,8 16,8 17,4 17,8 7 4 13 7 W 1026,2 59 0 0,0
11.09.2019 21:00:00 16,4 8,4 15,8 17,1 17,4 17,8 10 5 21 11 W 1025,5 66 0 0,0
11.09.2019 20:00:00 17,1 8,0 16,6 17,7 17,4 17,9 14 8 26 14 W 1024,7 55 0 0,0
11.09.2019 19:00:00 17,6 7,5 17,3 18,3 17,4 17,9 18 10 31 17 W 1024,5 64 0 0,0
11.09.2019 18:00:00 18,2 7,7 17,9 19,0 17,3 17,9 15 8 29 16 W 1024,2 46 0 0,0
11.09.2019 17:00:00 18,4 6,8 17,7 19,7 17,1 17,9 22 12 34 18 W 1023,8 52 0 0,0
11.09.2019 16:00:00 18,6 6,9 20,0 20,4 16,8 17,9 20 11 32 17 WSW 1023,7 66 2 0,0
11.09.2019 15:00:00 18,6 6,8 21,2 20,4 16,5 17,9 21 12 30 16 WSW 1023,6 62 0 0,0
11.09.2019 14:00:00 17,9 6,0 19,9 20,8 16,0 17,9 18 10 30 16 W 1023,8 54 9 0,0
11.09.2019 13:00:00 18,0 5,8 21,4 20,8 15,5 17,9 17 9 29 15 WSW 1023,9 63 32 0,0
11.09.2019 12:00:00 18,1 6,4 23,6 20,3 15,1 17,9 13 7 20 11 WSW 1023,9 63 60 0,0
11.09.2019 11:00:00 16,2 7,4 20,2 17,6 14,9 17,9 9 5 12 7 WSW 1024,1 47 60 0,0
11.09.2019 10:00:00 14,8 7,0 17,1 14,8 14,8 18,0 4 2 6 4 SSW 1023,9 53 60 0,0
11.09.2019 09:00:00 14,2 7,9 13,3 12,1 15,0 18,0 0 0 6 4 N 1023,6 55 60 0,0
11.09.2019 08:00:00 11,1 5,5 9,4 10,4 15,2 18,0 5 3 7 4 ENE 1023,5 60 26 0,0
11.09.2019 07:00:00 10,5 5,8 5,6 10,4 15,5 18,0 5 3 6 3 ENE 1023,2 71 0 0,0
11.09.2019 06:00:00 10,4 5,6 6,5 10,8 15,7 18,0 6 3 7 4 NE 1022,6 63 0 0,0
11.09.2019 05:00:00 10,1 5,5 6,0 11,1 16,0 18,0 4 2 6 3 ENE 1022,5 64 0 0,0
11.09.2019 04:00:00 10,1 5,2 6,2 11,5 16,3 18,0 5 3 8 4 NE 1022,2 62 0 0,0
11.09.2019 03:00:00 11,9 5,8 6,8 12,0 16,5 18,0 7 4 10 5 NE 1021,8 70 0 0,0
11.09.2019 02:00:00 12,3 4,9 7,7 12,6 16,8 18,1 8 5 11 6 NE 1021,7 70 0 0,0
11.09.2019 01:00:00 12,3 4,5 7,9 13,3 17,1 18,1 8 4 11 6 NE 1021,6 67 0 0,0
11.09.2019 00:00:00 13,8 4,0 9,7 13,9 17,4 18,1 10 6 13 7 NNE 1021,2 75 0 0,0
10.09.2019 23:00:00 14,1 4,3 10,6 14,6 17,7 18,1 11 6 15 8 NE 1021,1 73 0 0,0
10.09.2019 22:00:00 14,0 3,7 10,0 15,7 18,0 18,1 8 4 13 7 NNE 1020,6 75 0 0,0
10.09.2019 21:00:00 15,9 3,5 12,3 16,9 18,1 18,1 9 5 13 7 N 1019,7 75 0 0,0
10.09.2019 20:00:00 16,4 3,6 13,0 18,8 18,1 18,1 8 4 13 7 N 1019,0 75 51 0,0
10.09.2019 19:00:00 17,7 4,0 18,9 20,9 17,9 18,2 6 4 13 7 N 1018,2 75 55 0,0
10.09.2019 18:00:00 17,5 4,3 18,7 22,7 17,7 18,2 8 4 16 9 NNE 1017,9 67 52 0,0
10.09.2019 17:00:00 19,0 4,7 22,2 21,9 17,3 18,2 4 2 20 11 WSW 1017,4 64 9 0,0
10.09.2019 16:00:00 18,5 4,1 20,5 24,7 16,7 18,2 8 4 18 10 WSW 1017,5 73 50 0,0
10.09.2019 15:00:00 18,2 4,1 22,0 24,5 16,0 18,2 8 4 19 10 SE 1017,5 67 56 0,0
10.09.2019 14:00:00 18,4 4,5 24,1 23,0 15,5 18,2 11 6 19 10 SE 1017,4 66 51 0,0
10.09.2019 13:00:00 16,1 4,4 19,3 21,0 15,0 18,2 10 6 18 10 E 1017,6 69 53 0,0
10.09.2019 12:00:00 16,6 5,6 21,5 19,1 14,6 18,3 12 6 18 10 SE 1017,4 72 60 0,0
10.09.2019 11:00:00 15,7 6,2 19,5 16,4 14,3 18,3 10 5 14 8 ESE 1017,2 63 60 0,0
10.09.2019 10:00:00 13,2 8,6 15,7 13,5 14,3 18,3 6 3 9 5 E 1017,4 67 60 0,0
10.09.2019 09:00:00 10,2 7,1 11,7 11,0 14,4 18,3 5 3 8 4 E 1017,3 52 60 0,0
10.09.2019 08:00:00 8,4 5,8 7,6 9,6 14,6 18,3 7 4 8 4 NE 1017,1 48 29 0,0
10.09.2019 07:00:00 8,6 6,0 4,9 9,8 14,9 18,3 3 2 8 4 ENE 1016,6 51 0 0,0
10.09.2019 06:00:00 9,6 6,0 6,5 10,1 15,1 18,3 9 5 13 7 NE 1016,2 48 0 0,0
10.09.2019 05:00:00 9,2 5,7 6,0 10,2 15,3 18,4 9 5 10 5 NE 1016,2 54 0 0,0
10.09.2019 04:00:00 9,8 6,0 6,0 10,5 15,6 18,4 8 4 9 5 NE 1016,0 51 0 0,0
10.09.2019 03:00:00 10,5 5,9 6,3 11,0 15,8 18,4 7 4 9 5 ENE 1016,1 54 0 0,0
10.09.2019 02:00:00 11,0 5,8 6,5 11,5 16,1 18,4 7 4 8 5 ENE 1015,9 56 0 0,0
10.09.2019 01:00:00 11,3 5,7 7,2 12,3 16,3 18,4 4 2 8 4 ENE 1015,9 67 0 0,0
10.09.2019 00:00:00 11,8 5,8 9,5 12,9 16,5 18,4 7 4 9 5 NE 1015,7 67 0 0,0
09.09.2019 23:00:00 12,2 5,8 9,8 13,5 16,7 18,4 6 3 9 5 ENE 1015,5 58 0 0,0
09.09.2019 22:00:00 13,1 5,7 10,2 13,8 17,0 18,5 0 0 3 2 N 1015,3 60 0 0,0
09.09.2019 21:00:00 12,9 5,7 9,5 14,5 17,1 18,5 2 1 6 3 S 1015,1 63 0 0,0
09.09.2019 20:00:00 13,9 5,1 10,3 15,8 17,2 18,5 4 2 11 6 W 1014,6 71 0 0,0
09.09.2019 19:00:00 14,7 5,8 14,3 17,0 17,2 18,5 9 5 16 9 SSW 1014,4 61 43 0,0
09.09.2019 18:00:00 15,6 4,6 16,9 17,7 17,2 18,5 9 5 19 11 WSW 1014,2 65 10 0,0
09.09.2019 17:00:00 15,4 5,8 16,0 18,6 17,1 18,5 11 6 20 11 WSW 1014,4 62 11 0,0
09.09.2019 16:00:00 15,4 5,4 16,5 19,7 16,8 18,6 11 6 18 10 W 1014,7 52 19 0,0
09.09.2019 15:00:00 15,6 5,1 17,1 21,0 16,3 18,6 7 4 24 13 SW 1015,1 64 38 0,0
09.09.2019 14:00:00 16,2 4,6 20,6 21,8 15,8 18,6 9 5 29 16 WSW 1015,3 52 49 0,0
09.09.2019 13:00:00 15,1 5,1 20,1 20,9 15,3 18,6 15 8 26 14 W 1015,6 55 57 0,0
09.09.2019 12:00:00 14,5 5,6 17,9 19,7 14,9 18,6 11 6 24 13 WNW 1015,9 57 49 0,0

tt = Température de l'air
td = dewpoint
tt 5cm = Température de l'air 5cm
tt -5cm = Température de l'air -5cm
tt -20cm = Température de l'air -20cm
tt -100cm = Température de l'air -100cm
ff = Vitesse du vent
fx = gusts
dd = Direction du vent
ppp = reduced air pressure
vv = visibility
sd = Ensoleillement
rr = Quantités de précipitations

stations d'obs. à proximité